ACA890 CYYZ-LIRF

Flight info

Callsign ACA890
Flight time N/A
Altitude 35000
Route VERDO7 IPTOS Q921 AGLUK DCT BAREE N521B ALLRY/M083F350 DCT 51N050W 5130N04000W 5130N03000W 50N020W 48N015W DCT BUNAV UN536 TIVLU/N0482F350 DCT GALOF/N0479F370 DCT CNA DCT LERGA DCT TOZOT DCT OTROT DCT RETNO DCT KOLON DCT RAPUR DCT RATAP/N0463F290 DCT BTA/N0450F280 DCT MOULE DCT XOPTA DCT ELB DCT ELKAP
Aircraft B77W/H-SDE1E2E3FGHIJ2J3J4J5M1RWXY/LB1D1

Departure

Time 2026-05-04 23:08
Airport Toronto Pearson International Airport (CYYZ)

Arrival

Time N/A
Airport Rome–Fiumicino Leonardo da Vinci International Airport (LIRF)
Time Latitude Longitude Altitude Speed Heading
2026-05-04 22:35 43.67590 -79.61260 570 ft 0 kts 11°
2026-05-04 22:59 43.67587 -79.61261 566 ft 3 kts 11°
2026-05-04 22:59 43.67561 -79.61268 571 ft 4 kts 12°
2026-05-04 23:00 43.67535 -79.61276 574 ft 4 kts 12°
2026-05-04 23:00 43.67513 -79.61283 572 ft 4 kts 31°
2026-05-04 23:00 43.67500 -79.61307 575 ft 4 kts 92°
2026-05-04 23:00 43.67506 -79.61342 575 ft 3 kts 113°
2026-05-04 23:01 43.67507 -79.61347 575 ft 0 kts 114°
2026-05-04 23:03 43.67497 -79.61316 574 ft 12 kts 112°
2026-05-04 23:03 43.67479 -79.61188 566 ft 14 kts 93°
2026-05-04 23:03 43.67489 -79.61056 571 ft 14 kts 70°
2026-05-04 23:03 43.67521 -79.60933 571 ft 12 kts 93°
2026-05-04 23:04 43.67479 -79.60844 574 ft 8 kts 99°
2026-05-04 23:04 43.67494 -79.60797 573 ft 8 kts 48°
2026-05-04 23:04 43.67555 -79.60708 573 ft 13 kts 46°
2026-05-04 23:04 43.67637 -79.60589 575 ft 18 kts 46°
2026-05-04 23:05 43.67724 -79.60463 571 ft 18 kts 46°
2026-05-04 23:05 43.67810 -79.60337 572 ft 18 kts 46°
2026-05-04 23:05 43.67897 -79.60210 574 ft 18 kts 46°
2026-05-04 23:05 43.67984 -79.60083 573 ft 18 kts 46°
2026-05-04 23:06 43.68071 -79.59956 574 ft 17 kts 53°
2026-05-04 23:06 43.68037 -79.59828 574 ft 15 kts 135°
2026-05-04 23:06 43.67962 -79.59732 569 ft 13 kts 141°
2026-05-04 23:06 43.67884 -79.59760 570 ft 13 kts 226°
2026-05-04 23:07 43.67772 -79.59921 572 ft 47 kts 226°
2026-05-04 23:07 43.67375 -79.60495 575 ft 117 kts 226°
2026-05-04 23:07 43.66680 -79.61498 628 ft 165 kts 226°
2026-05-04 23:07 43.66165 -79.62278 962 ft 167 kts 227°
2026-05-04 23:08 43.65372 -79.63491 1556 ft 174 kts 225°
2026-05-04 23:08 43.64537 -79.64734 2138 ft 181 kts 226°
2026-05-04 23:08 43.63657 -79.66064 2490 ft 194 kts 227°
2026-05-04 23:08 43.62702 -79.67498 2770 ft 214 kts 227°
2026-05-04 23:09 43.61665 -79.69058 3240 ft 225 kts 227°
2026-05-04 23:09 43.60598 -79.70649 3956 ft 228 kts 227°
2026-05-04 23:09 43.59495 -79.72243 4693 ft 231 kts 226°
2026-05-04 23:09 43.58321 -79.73823 5278 ft 239 kts 225°
2026-05-04 23:10 43.57099 -79.75408 5920 ft 244 kts 225°
2026-05-04 23:10 43.55859 -79.77012 6633 ft 244 kts 225°
2026-05-04 23:10 43.54535 -79.78478 7163 ft 250 kts 211°
2026-05-04 23:10 43.52812 -79.79145 7681 ft 265 kts 189°
2026-05-04 23:11 43.50955 -79.78932 8400 ft 275 kts 171°
2026-05-04 23:11 43.49176 -79.77821 9033 ft 290 kts 149°
2026-05-04 23:11 43.48665 -79.77247 9222 ft 296 kts 141°
2026-05-04 23:11 43.47203 -79.72079 10232 ft 326 kts 85°
2026-05-04 23:12 43.47733 -79.68983 10434 ft 341 kts 72°
2026-05-04 23:12 43.48458 -79.65767 10598 ft 363 kts 73°
2026-05-04 23:12 43.49206 -79.62332 10778 ft 386 kts 73°
2026-05-04 23:12 43.49989 -79.58684 11048 ft 405 kts 74°
2026-05-04 23:13 43.50790 -79.54907 11616 ft 416 kts 74°
2026-05-04 23:13 43.51602 -79.51042 12356 ft 424 kts 74°
2026-05-04 23:13 43.52419 -79.47116 13172 ft 429 kts 73°
2026-05-04 23:13 43.53291 -79.43150 13923 ft 434 kts 70°
2026-05-04 23:14 43.54471 -79.39314 14705 ft 437 kts 62°
2026-05-04 23:14 43.55894 -79.35594 15485 ft 440 kts 60°
2026-05-04 23:14 43.57308 -79.31828 16217 ft 445 kts 61°
2026-05-04 23:14 43.58699 -79.28037 16939 ft 450 kts 62°
2026-05-04 23:15 43.60111 -79.24149 17682 ft 455 kts 62°
2026-05-04 23:15 43.61508 -79.20283 18333 ft 459 kts 62°
2026-05-04 23:15 43.62938 -79.16321 18995 ft 463 kts 61°
2026-05-04 23:15 43.64368 -79.12353 19658 ft 466 kts 61°
2026-05-04 23:16 43.65819 -79.08325 20306 ft 470 kts 61°
2026-05-04 23:16 43.67278 -79.04273 20947 ft 473 kts 61°
2026-05-04 23:16 43.68746 -79.00188 21594 ft 477 kts 61°
2026-05-04 23:16 43.70229 -78.96059 22198 ft 482 kts 60°
2026-05-04 23:17 43.71723 -78.91891 22741 ft 487 kts 60°
2026-05-04 23:17 43.73230 -78.87679 23318 ft 490 kts 60°
2026-05-04 23:17 43.74742 -78.83445 23825 ft 493 kts 60°
2026-05-04 23:17 43.76266 -78.79176 24328 ft 496 kts 60°
2026-05-04 23:18 43.77790 -78.74892 24835 ft 499 kts 61°
2026-05-04 23:18 43.78797 -78.72021 25147 ft 501 kts 61°
2026-05-04 23:18 43.80310 -78.67663 25615 ft 504 kts 61°
2026-05-04 23:18 43.81821 -78.63277 26103 ft 506 kts 61°
2026-05-04 23:19 43.83340 -78.58859 26571 ft 509 kts 61°
2026-05-04 23:19 43.84863 -78.54426 27030 ft 512 kts 61°
2026-05-04 23:19 43.86402 -78.49949 27362 ft 517 kts 61°
2026-05-04 23:19 43.87953 -78.45435 27738 ft 520 kts 61°
2026-05-04 23:20 43.89509 -78.40902 28157 ft 522 kts 62°
2026-05-04 23:20 43.91071 -78.36343 28569 ft 524 kts 62°
2026-05-04 23:20 43.92634 -78.31775 28946 ft 526 kts 62°
2026-05-04 23:20 43.94204 -78.27176 29364 ft 527 kts 62°
2026-05-04 23:21 43.95768 -78.22587 29875 ft 525 kts 62°
2026-05-04 23:21 43.97323 -78.18014 30340 ft 523 kts 61°
2026-05-04 23:21 43.98871 -78.13453 30792 ft 521 kts 61°
2026-05-04 23:21 43.99893 -78.10441 31082 ft 521 kts 61°
2026-05-04 23:22 44.01957 -78.04351 31528 ft 522 kts 61°
2026-05-04 23:22 44.03500 -77.99790 31928 ft 521 kts 60°
2026-05-04 23:22 44.05033 -77.95246 32352 ft 518 kts 60°
2026-05-04 23:22 44.06553 -77.90729 32919 ft 513 kts 60°
2026-05-04 23:23 44.08062 -77.86238 33360 ft 511 kts 60°
2026-05-04 23:23 44.09566 -77.81759 33671 ft 512 kts 60°
2026-05-04 23:23 44.11073 -77.77268 33932 ft 512 kts 60°
2026-05-04 23:23 44.12575 -77.72782 34197 ft 512 kts 60°
2026-05-04 23:24 44.14075 -77.68291 34500 ft 511 kts 60°
2026-05-04 23:24 44.15573 -77.63801 34621 ft 514 kts 60°
2026-05-04 23:24 44.18593 -77.54744 34680 ft 513 kts 59°
2026-05-04 23:25 44.22175 -77.46350 34678 ft 497 kts 47°
2026-05-04 23:25 44.26547 -77.38918 34691 ft 496 kts 45°
2026-05-04 23:26 44.30901 -77.31402 34703 ft 499 kts 45°
2026-05-04 23:26 44.35236 -77.23810 34696 ft 501 kts 45°
2026-05-04 23:27 44.39573 -77.16188 34703 ft 501 kts 45°
2026-05-04 23:27 44.43908 -77.08556 34689 ft 501 kts 45°
2026-05-04 23:28 44.48233 -77.00928 34699 ft 500 kts 45°
2026-05-04 23:28 44.52547 -76.93302 34690 ft 499 kts 46°
2026-05-04 23:29 44.56842 -76.85687 34691 ft 498 kts 46°
2026-05-04 23:29 44.61136 -76.78055 34696 ft 498 kts 46°
2026-05-04 23:30 44.65419 -76.70423 34692 ft 498 kts 46°
2026-05-04 23:30 44.69710 -76.62756 34689 ft 499 kts 46°
2026-05-04 23:31 44.73998 -76.55071 34684 ft 500 kts 46°
2026-05-04 23:31 44.78284 -76.47370 34704 ft 500 kts 46°
2026-05-04 23:32 44.82574 -76.39643 34680 ft 501 kts 46°
2026-05-04 23:32 44.86863 -76.31894 34676 ft 502 kts 46°
2026-05-04 23:33 44.90997 -76.23921 34653 ft 508 kts 54°
2026-05-04 23:33 44.94070 -76.14875 34656 ft 517 kts 66°
2026-05-04 23:34 44.96331 -76.05238 34658 ft 517 kts 67°
2026-05-04 23:34 44.98623 -75.95625 34661 ft 516 kts 66°
2026-05-04 23:35 45.00940 -75.86044 34669 ft 515 kts 66°
2026-05-04 23:35 45.03253 -75.76473 34662 ft 514 kts 66°
2026-05-04 23:36 45.05554 -75.66901 34666 ft 514 kts 66°
2026-05-04 23:36 45.07844 -75.57323 34666 ft 514 kts 66°
2026-05-04 23:37 45.10089 -75.47892 34657 ft 513 kts 66°
2026-05-04 23:37 45.12350 -75.38351 34658 ft 513 kts 66°
2026-05-04 23:38 45.14610 -75.28776 34662 ft 513 kts 66°
2026-05-04 23:38 45.16850 -75.19231 34670 ft 513 kts 66°
2026-05-04 23:39 45.19093 -75.09644 34687 ft 513 kts 66°
2026-05-04 23:39 45.21326 -75.00070 34670 ft 514 kts 66°
2026-05-04 23:40 45.23591 -74.90451 34666 ft 513 kts 64°
2026-05-04 23:40 45.26881 -74.81785 34677 ft 499 kts 48°
2026-05-04 23:41 45.31388 -74.74458 34680 ft 490 kts 38°
2026-05-04 23:41 45.36136 -74.67489 34678 ft 491 kts 39°
2026-05-04 23:42 45.40833 -74.60439 34679 ft 492 kts 39°
2026-05-04 23:42 45.45507 -74.53373 34682 ft 492 kts 39°
2026-05-04 23:43 45.50193 -74.46276 34682 ft 491 kts 39°
2026-05-04 23:43 45.54878 -74.39168 34689 ft 492 kts 39°
2026-05-04 23:44 45.59562 -74.32045 34695 ft 492 kts 39°
2026-05-04 23:44 45.64238 -74.24917 34699 ft 492 kts 39°
2026-05-04 23:45 45.68914 -74.17768 34687 ft 492 kts 40°
2026-05-04 23:45 45.73569 -74.10634 34716 ft 492 kts 40°
2026-05-04 23:46 45.78234 -74.03463 34693 ft 491 kts 40°
2026-05-04 23:46 45.82883 -73.96298 34691 ft 491 kts 40°
2026-05-04 23:47 45.87528 -73.89125 34703 ft 490 kts 40°
2026-05-04 23:47 45.92166 -73.81941 34704 ft 490 kts 40°
2026-05-04 23:48 45.96793 -73.74754 34705 ft 490 kts 40°
2026-05-04 23:48 46.01389 -73.67598 34718 ft 490 kts 40°
2026-05-04 23:49 46.06012 -73.60380 34718 ft 491 kts 40°
2026-05-04 23:49 46.10635 -73.53142 34722 ft 491 kts 40°
2026-05-04 23:50 46.15243 -73.45910 34719 ft 491 kts 40°
2026-05-04 23:50 46.19866 -73.38635 34737 ft 492 kts 40°
2026-05-04 23:51 46.24219 -73.30905 34718 ft 499 kts 46°
2026-05-04 23:51 46.28291 -73.22748 34734 ft 501 kts 47°
2026-05-04 23:52 46.32358 -73.14574 34735 ft 501 kts 47°
2026-05-04 23:52 46.36463 -73.06420 34728 ft 501 kts 46°
2026-05-04 23:53 46.40582 -72.98275 34732 ft 501 kts 46°
2026-05-04 23:53 46.46272 -72.86996 34741 ft 502 kts 47°
2026-05-04 23:54 46.54492 -72.70605 34728 ft 503 kts 46°
2026-05-04 23:54 46.62691 -72.54154 34736 ft 502 kts 46°
2026-05-04 23:55 46.70863 -72.37664 34745 ft 502 kts 47°
2026-05-04 23:56 46.83082 -72.12823 34760 ft 503 kts 47°
2026-05-04 23:56 46.91201 -71.96185 34759 ft 501 kts 47°
2026-05-04 23:57 46.99260 -71.79582 34799 ft 499 kts 47°
2026-05-04 23:57 47.07237 -71.63046 34772 ft 499 kts 47°
2026-05-04 23:58 47.15122 -71.46600 34788 ft 497 kts 48°
2026-05-04 23:58 47.23033 -71.30004 34793 ft 495 kts 48°
2026-05-04 23:59 47.30916 -71.13371 34760 ft 494 kts 48°
2026-05-04 23:59 47.38238 -70.97823 34745 ft 492 kts 48°
2026-05-05 00:00 47.45906 -70.81450 34758 ft 491 kts 48°
2026-05-05 00:00 47.51696 -70.69032 34716 ft 492 kts 48°
2026-05-05 00:01 47.58551 -70.54232 34723 ft 491 kts 49°
2026-05-05 00:01 47.65767 -70.38580 34707 ft 494 kts 49°
2026-05-05 00:02 47.73516 -70.21677 34714 ft 497 kts 50°
2026-05-05 00:02 47.81283 -70.04626 34732 ft 499 kts 50°
2026-05-05 00:03 47.89054 -69.87448 34713 ft 500 kts 50°
2026-05-05 00:03 47.95461 -69.73211 34730 ft 500 kts 51°
2026-05-05 00:04 48.03172 -69.55976 34710 ft 498 kts 51°
2026-05-05 00:04 48.10194 -69.40185 34709 ft 497 kts 52°
2026-05-05 00:05 48.13900 -69.31492 34695 ft 499 kts 57°
2026-05-05 00:05 48.16927 -69.20325 34699 ft 505 kts 69°
2026-05-05 00:06 48.18675 -69.11993 34699 ft 504 kts 68°
2026-05-05 00:06 48.20797 -69.02099 34716 ft 504 kts 68°